TOKI

Last updated on May 4, 2019, 3:05 a.m. UTC

1 42820U 98067MU  19123.10626650  .20777511  12651-4  37226-3 0  9990
2 42820  51.6051 142.7539 0005305 301.2009  59.2873 16.47402492104441

Satellite is not in orbit.